Location: *
(34.0486°S, 61.7880°E)
Time: 19:51:26
(UTC+00:00)

Meteosat 1 Rocket2 - Pass Details

Date: 01 April 2020
Orbit: 485 x 2307 km, 28.3° (Epoch: 27 May)

Event Time Altitude Azimuth Distance (km) Brightness Sun altitude
Rises 15:34:16 0° 278° (W) 2,985 7.8 -22.9°
Reaches altitude 10° 15:36:20 10° 284° (WNW) 2,231 6.8 -23.3°
Maximum altitude 15:41:24 49° 358° (N) 1,197 4.3 -24.4°
Enters shadow 15:42:52 42° 35° (NE) 1,406 4.5 -24.7°
